Content
SEND FEEDBACK

Daily
Averages
Monthly
Summary
French Polynesia

PAPEETE, FRENCH POLYNESIA


Home > Oceania > French Polynesia
Elevation: 2 meters     Latitude: 17 33S     Longitude: 149 36W

WEATHER
 
SELECT A DAY
Number of Records: 208,079;   Date Range: 6/30/96 - 7/20/14
 
SHARE

PRINT THIS DATA

[ ← Previous Day ]
WEATHER ALMANAC - 23 JANUARY, 2013
[ Next Day → ]
[ °F ]   °C
Weather ElementAverageHighLow
Temperature27.2 °C30 °C (10:00 am)23 °C (5:00 am)
Dewpoint22.1 °C24 °C (12:30 pm)20 °C (3:00 am)
Humidity72.6 %83 % (2:00 am)58 % (2:00 pm)
Barometer1008.8 hPa1011.2 hPa (10:00 pm)1007.1 hPa (3:00 pm)
Wind Speed10 km/h36 km/h (5:00 pm)
Weather ElementAverage
Visibility12.4 km
Wind DirectionENE (70.4 °)

Weather ElementTotal
Precipitation---
Cooling Degree Days8.2 (Base 18.3)
Growing Degree Days16.5 (Base 10)
Averaged from 55 records on 23 January, 2013
WEATHER CONDITIONS BREAKOUT
WIND DIRECTION BREAKOUT
WEATHER BY HOUR - 23 JANUARY, 2013
[ °F ]   °C
Local TimeTemperatureDewpointHumidityBarometerVisibilityWind DirectionWind SpeedGust SpeedPrecipitationEventsConditions
12:30 AM25 °C21 °C78 %1009.1 hPa10 kmESE (110°)3.7 km/hScattered Clouds
1:00 AM25 °C21 °C78 %1008.1 hPa10 kmVariable5.6 km/hPartly Cloudy
1:30 AM25 °C21 °C78 %1008.1 hPa10 kmVariable1.9 km/hPartly Cloudy
2:00 AM24.4 °C21.1 °C77 %1008.8 hPa19.3 kmEast (100°)10.8 km/hScattered Clouds
2:00 AM24 °C21 °C83 %1008.1 hPa10 kmEast (100°)5.6 km/hPartly Cloudy
2:30 AM24 °C21 °C83 %1008.1 hPa10 kmVariable3.7 km/hPartly Cloudy
3:00 AM24 °C20 °C78 %1008.1 hPa10 kmESE (110°)3.7 km/hPartly Cloudy
3:30 AM24 °C21 °C83 %1008.1 hPa10 kmESE (110°)3.7 km/h
4:00 AM24 °C21 °C83 %1008.1 hPa10 kmEast (100°)5.6 km/h
4:30 AM24 °C21 °C83 %1008.1 hPa10 kmEast (100°)7.4 km/h
5:00 AM23.3 °C20.6 °C78 %1008.5 hPa59.5 kmESE (120°)3.5 km/hClear
5:00 AM23 °C20 °C83 %1008.1 hPa10 kmCalm
5:30 AM23 °C20 °C83 %1008.1 hPa10 kmSE (130°)3.7 km/h
6:00 AM23 °C20 °C83 %1009.1 hPa10 kmVariable3.7 km/hScattered Clouds
6:30 AM24 °C20 °C78 %1009.1 hPa10 kmCalmScattered Clouds
7:00 AM26 °C21 °C74 %1009.1 hPa10 kmVariable3.7 km/hScattered Clouds
7:30 AM27 °C21 °C70 %1009.1 hPa10 kmCalmPartly Cloudy
8:00 AM27.8 °C21.1 °C59 %1009.8 hPa25.7 kmNW (320°)3.7 km/hPartly Cloudy
8:00 AM28 °C21 °C66 %1009.1 hPa10 kmNW (320°)3.7 km/hPartly Cloudy
8:30 AM28 °C21 °C66 %1009.1 hPa10 kmVariable3.7 km/hPartly Cloudy
9:00 AM29 °C21 °C62 %1009.1 hPa10 kmVariable3.7 km/hPartly Cloudy
9:30 AM29 °C23 °C70 %1009.1 hPa10 kmVariable5.6 km/hScattered Clouds
10:00 AM30 °C23 °C66 %1009.1 hPa10 kmNE (40°)14.8 km/hScattered Clouds
10:30 AM30 °C23 °C66 %1009.1 hPa10 kmNE (40°)16.7 km/hScattered Clouds
11:00 AM29.4 °C23.3 °C62 %1009.5 hPa25.7 kmNE (50°)16.7 km/hPartly Cloudy
11:00 AM30 °C23 °C66 %1009.1 hPa10 kmNE (50°)16.7 km/hScattered Clouds
11:30 AM30 °C23 °C66 %1009.1 hPa10 kmNE (50°)16.7 km/hScattered Clouds
12:00 PM30 °C23 °C66 %1008.1 hPa10 kmNE (50°)16.7 km/hScattered Clouds
12:30 PM30 °C24 °C70 %1008.1 hPa10 kmNE (50°)14.8 km/hPartly Cloudy
1:00 PM30 °C23 °C66 %1008.1 hPa10 kmNE (40°)16.7 km/hPartly Cloudy
1:30 PM30 °C23 °C66 %1008.1 hPa10 kmNE (50°)18.5 km/hPartly Cloudy
2:00 PM30 °C22.8 °C58 %1008.5 hPa19.3 kmNE (40°)18.5 km/hPartly Cloudy
2:00 PM30 °C23 °C66 %1008.1 hPa10 kmNE (40°)18.5 km/hScattered Clouds
2:30 PM30 °C23 °C66 %1008.1 hPa10 kmNE (50°)18.5 km/hScattered Clouds
3:00 PM30 °C24 °C70 %1007.1 hPa10 kmNE (40°)20.4 km/hPartly Cloudy
3:30 PM30 °C23 °C66 %1007.1 hPa10 kmNE (40°)18.5 km/hPartly Cloudy
4:00 PM30 °C23 °C66 %1007.1 hPa10 kmNE (50°)18.5 km/hPartly Cloudy
4:30 PM30 °C23 °C66 %1007.1 hPa10 kmNE (40°)18.5 km/hPartly Cloudy
5:00 PM29.4 °C22.8 °C60 %1007.8 hPa25.7 kmNE (40°)36 km/hScattered Clouds
5:00 PM29 °C23 °C70 %1007.1 hPa10 kmNE (40°)18.5 km/hPartly Cloudy
5:30 PM29 °C23 °C70 %1008.1 hPa10 kmNE (50°)20.4 km/hPartly Cloudy
6:00 PM28 °C23 °C74 %1008.1 hPa10 kmENE (60°)16.7 km/hScattered Clouds
6:30 PM28 °C23 °C74 %1009.1 hPa10 kmNE (50°)16.7 km/hScattered Clouds
7:00 PM28 °C23 °C74 %1009.1 hPa10 kmVariable11.1 km/hScattered Clouds
7:30 PM28 °C22 °C70 %1009.1 hPa10 kmENE (60°)7.4 km/hScattered Clouds
8:00 PM27.2 °C22.8 °C71 %1010.2 hPa19.3 kmSouth (190°)7.4 km/hScattered Clouds
8:00 PM27 °C23 °C79 %1009.1 hPa10 kmSouth (190°)7.4 km/hPartly Cloudy
8:30 PM27 °C23 °C79 %1010.2 hPa10 kmSouth (170°)5.6 km/hPartly Cloudy
9:00 PM27 °C23 °C79 %1010.2 hPa10 kmSouth (170°)3.7 km/hPartly Cloudy
9:30 PM26 °C22 °C78 %1010.2 hPa10 kmEast (90°)5.6 km/hPartly Cloudy
10:00 PM26 °C22 °C78 %1011.2 hPa10 kmEast (90°)3.7 km/hPartly Cloudy
10:30 PM26 °C22 °C78 %1010.2 hPa10 kmESE (110°)3.7 km/hPartly Cloudy
11:00 PM26.1 °C22.2 °C75 %1010.8 hPa19.3 kmESE (110°)10.8 km/hScattered Clouds
11:00 PM26 °C22 °C78 %1010.2 hPa10 kmESE (110°)5.6 km/hPartly Cloudy
11:30 PM26 °C22 °C78 %1010.2 hPa10 kmVariable3.7 km/hPartly Cloudy
Hourly data recorded from NTAA, located 0 kilometers away from Papeete, French Polynesia







STORIES FROM OUR PARTNERS